TimeEST,TemperatureF,Dew PointF,Humidity,Sea Level PressureIn,VisibilityMPH,Wind Direction,Wind SpeedMPH,Gust SpeedMPH,PrecipitationIn,Events,Conditions,WindDirDegrees,DateUTC
12:56 AM,55.4,55.4,100,30.10,9.0,South,2.3,-,N/A,,Clear,190,2014-02-20 05:56:00
12:58 AM,55.8,55.6,99,30.10,8.0,South,2.3,-,N/A,,Clear,190,2014-02-20 05:58:00
1:18 AM,53.6,53.6,100,30.10,6.0,Calm,Calm,-,N/A,,Clear,0,2014-02-20 06:18:00
1:22 AM,53.6,53.6,100,30.10,5.0,Calm,Calm,-,N/A,,Clear,0,2014-02-20 06:22:00
1:26 AM,53.6,53.6,100,30.10,1.8,Calm,Calm,-,N/A,,Clear,0,2014-02-20 06:26:00
1:28 AM,53.6,53.6,100,30.10,0.8,Calm,Calm,-,N/A,,Clear,0,2014-02-20 06:28:00
1:30 AM,53.6,53.6,100,30.10,0.5,Calm,Calm,-,N/A,Fog,Fog,0,2014-02-20 06:30:00
1:32 AM,55.4,53.6,94,30.10,0.5,Calm,Calm,-,N/A,Fog,Fog,0,2014-02-20 06:32:00
1:34 AM,53.6,53.6,100,30.10,0.2,Calm,Calm,-,N/A,Fog,Fog,0,2014-02-20 06:34:00
1:38 AM,53.6,53.6,100,30.10,0.5,Calm,Calm,-,N/A,Fog,Fog,0,2014-02-20 06:38:00
1:40 AM,53.6,53.6,100,30.10,0.8,Calm,Calm,-,N/A,,Clear,0,2014-02-20 06:40:00
1:42 AM,53.6,53.6,100,30.10,1.0,Calm,Calm,-,N/A,,Clear,0,2014-02-20 06:42:00
1:44 AM,53.6,53.6,100,30.10,1.5,Calm,Calm,-,N/A,,Clear,0,2014-02-20 06:44:00
1:48 AM,53.6,53.6,100,30.10,1.2,Calm,Calm,-,N/A,,Clear,0,2014-02-20 06:48:00
1:50 AM,53.6,53.6,100,30.10,0.8,Calm,Calm,-,N/A,,Clear,0,2014-02-20 06:50:00
1:52 AM,53.6,53.6,100,30.11,0.5,Calm,Calm,-,N/A,Fog,Fog,0,2014-02-20 06:52:00
1:54 AM,55.4,55.4,100,30.10,0.5,Calm,Calm,-,N/A,Fog,Fog,0,2014-02-20 06:54:00
1:56 AM,55.4,55.4,100,30.10,0.2,Calm,Calm,-,N/A,Fog,Fog,0,2014-02-20 06:56:00
1:58 AM,55.4,55.4,100,30.10,0.2,Calm,Calm,-,N/A,Fog,Fog,0,2014-02-20 06:58:00
2:24 AM,51.8,51.8,100,30.10,0.5,Calm,Calm,-,N/A,Fog,Fog,0,2014-02-20 07:24:00
2:26 AM,51.8,51.8,100,30.10,0.2,Calm,Calm,-,N/A,Fog,Fog,0,2014-02-20 07:26:00
2:32 AM,53.6,53.6,100,30.10,0.5,Calm,Calm,-,N/A,Fog,Fog,0,2014-02-20 07:32:00
2:34 AM,53.6,53.6,100,30.10,0.5,Calm,Calm,-,N/A,Fog,Fog,0,2014-02-20 07:34:00
2:40 AM,53.6,53.6,100,30.10,0.5,ESE,1.2,-,N/A,Fog,Fog,120,2014-02-20 07:40:00
2:42 AM,53.6,53.6,100,30.10,0.2,SE,1.2,-,N/A,Fog,Fog,130,2014-02-20 07:42:00
2:50 AM,51.8,51.8,100,30.10,0.2,Calm,Calm,-,N/A,Fog,Fog,0,2014-02-20 07:50:00
2:52 AM,51.8,51.8,100,30.10,0.5,Calm,Calm,-,N/A,Fog,Fog,0,2014-02-20 07:52:00
2:54 AM,51.8,51.8,100,30.10,1.0,ESE,1.2,-,N/A,,Clear,120,2014-02-20 07:54:00
2:56 AM,51.8,51.8,100,30.10,2.0,SE,2.3,-,N/A,,Clear,130,2014-02-20 07:56:00
2:58 AM,51.8,51.8,100,30.10,3.0,SE,2.3,-,N/A,,Clear,140,2014-02-20 07:58:00
3:05 AM,51.8,51.8,100,30.09,0.2,SE,2.3,-,N/A,,Clear,140,2014-02-20 08:05:00
3:36 AM,50.0,50.0,100,30.09,0.5,SSE,2.3,-,N/A,Fog,Fog,160,2014-02-20 08:36:00
3:40 AM,50.0,50.0,100,30.09,0.5,SSE,2.3,-,N/A,Fog,Fog,160,2014-02-20 08:40:00
3:58 AM,49.8,49.8,100,30.09,0.2,Calm,Calm,-,N/A,,Clear,0,2014-02-20 08:58:00
4:26 AM,50.0,50.0,100,30.09,9.0,SE,2.3,-,N/A,,Clear,140,2014-02-20 09:26:00
4:58 AM,50.9,50.9,100,30.12,9.0,Calm,Calm,-,N/A,,Partly Cloudy,0,2014-02-20 09:58:00
5:22 AM,51.8,51.8,100,30.10,1.0,SSE,3.5,-,N/A,,Clear,150,2014-02-20 10:22:00
5:24 AM,51.8,51.8,100,30.10,1.0,SSE,4.6,-,N/A,,Clear,150,2014-02-20 10:24:00
5:40 AM,50.0,50.0,100,30.10,6.0,SSE,2.3,-,N/A,,Clear,150,2014-02-20 10:40:00
5:42 AM,50.0,50.0,100,30.10,6.0,SSE,2.3,-,N/A,,Clear,150,2014-02-20 10:42:00
5:48 AM,50.0,50.0,100,30.10,10.0,SE,2.3,-,N/A,,Clear,140,2014-02-20 10:48:00
5:56 AM,51.8,51.8,100,30.10,5.0,SE,2.3,-,N/A,,Clear,140,2014-02-20 10:56:00
6:15 AM,51.8,51.8,100,30.10,4.0,SSE,2.3,-,N/A,,Clear,150,2014-02-20 11:15:00
6:21 AM,51.8,51.8,100,30.11,1.0,SSE,2.3,-,N/A,,Partly Cloudy,150,2014-02-20 11:21:00
6:37 AM,50.0,50.0,100,30.11,0.8,East,1.2,-,N/A,,Partly Cloudy,80,2014-02-20 11:37:00
6:41 AM,50.0,50.0,100,30.11,0.5,Calm,Calm,-,N/A,Fog,Fog,0,2014-02-20 11:41:00
6:45 AM,50.0,50.0,100,30.11,0.5,Calm,Calm,-,N/A,Fog,Fog,0,2014-02-20 11:45:00
6:47 AM,51.8,51.8,100,30.11,0.5,SE,2.3,-,N/A,Fog,Fog,140,2014-02-20 11:47:00
6:53 AM,51.8,51.8,100,30.12,0.8,SSE,2.3,-,N/A,,Mostly Cloudy,150,2014-02-20 11:53:00
6:55 AM,51.8,51.8,100,30.12,0.8,SSE,2.3,-,N/A,,Mostly Cloudy,150,2014-02-20 11:55:00
6:57 AM,51.8,51.8,100,30.12,0.8,SSE,2.3,-,N/A,,Mostly Cloudy,160,2014-02-20 11:57:00
6:58 AM,51.8,51.8,100,30.13,1.0,SSE,1.2,-,N/A,,Mostly Cloudy,150,2014-02-20 11:58:00
7:00 AM,51.8,51.8,100,30.12,1.0,SE,2.3,-,N/A,,Overcast,140,2014-02-20 12:00:00
7:02 AM,51.8,51.8,100,30.12,0.8,ESE,1.2,-,N/A,,Overcast,110,2014-02-20 12:02:00
7:06 AM,53.6,53.6,100,30.12,0.5,SSE,2.3,-,N/A,Fog,Fog,150,2014-02-20 12:06:00
7:12 AM,53.6,53.6,100,30.12,0.8,SE,4.6,-,N/A,,Overcast,140,2014-02-20 12:12:00
7:14 AM,53.6,53.6,100,30.12,0.5,SE,4.6,-,N/A,Fog,Fog,140,2014-02-20 12:14:00
7:18 AM,55.4,55.4,100,30.12,0.5,SE,4.6,-,N/A,Fog,Fog,140,2014-02-20 12:18:00
7:20 AM,55.4,55.4,100,30.12,0.2,SSE,5.8,-,N/A,Fog,Fog,150,2014-02-20 12:20:00
7:22 AM,55.4,55.4,100,30.12,0.2,SSE,5.8,-,N/A,Fog,Fog,150,2014-02-20 12:22:00
7:23 AM,55.4,55.4,100,30.12,0.2,SE,4.6,-,N/A,Fog-Rain,Light Rain,140,2014-02-20 12:23:00
7:55 AM,55.4,55.4,100,30.13,0.2,SE,2.3,-,N/A,Fog,Fog,130,2014-02-20 12:55:00
7:58 AM,55.4,55.4,100,30.14,0.2,SE,2.3,-,0.00,Fog,Fog,130,2014-02-20 12:58:00
8:08 AM,55.4,55.4,100,30.13,0.2,SE,4.6,-,N/A,Fog,Fog,140,2014-02-20 13:08:00
8:10 AM,55.4,55.4,100,30.13,0.5,SE,4.6,-,N/A,Fog,Fog,140,2014-02-20 13:10:00
8:16 AM,55.4,55.4,100,30.13,0.5,SE,4.6,-,N/A,Fog,Fog,140,2014-02-20 13:16:00
8:24 AM,57.2,57.2,100,30.14,0.8,SSE,4.6,-,N/A,,Mist,150,2014-02-20 13:24:00
8:25 AM,57.2,57.2,100,30.14,0.8,SE,4.6,-,N/A,Rain,Light Rain,140,2014-02-20 13:25:00
8:27 AM,57.2,57.2,100,30.14,1.0,SE,4.6,-,N/A,Rain,Light Rain,130,2014-02-20 13:27:00
8:29 AM,57.2,57.2,100,30.14,1.2,SE,3.5,-,N/A,Rain,Light Rain,140,2014-02-20 13:29:00
8:31 AM,57.2,57.2,100,30.14,1.8,SE,3.5,-,N/A,Rain,Light Rain,130,2014-02-20 13:31:00
8:33 AM,57.2,57.2,100,30.14,2.0,SE,3.5,-,N/A,Rain,Light Rain,130,2014-02-20 13:33:00
8:35 AM,57.2,57.2,100,30.14,3.0,SE,3.5,-,N/A,Rain,Light Rain,140,2014-02-20 13:35:00
8:42 AM,59.0,59.0,100,30.14,5.0,SE,3.5,-,N/A,,Overcast,130,2014-02-20 13:42:00
8:58 AM,59.2,59.2,100,30.16,9.0,SE,2.3,-,0.00,,Mostly Cloudy,130,2014-02-20 13:58:00
9:04 AM,60.8,60.8,100,30.15,10.0,SE,5.8,-,N/A,,Scattered Clouds,140,2014-02-20 14:04:00
9:06 AM,60.8,60.8,100,30.15,10.0,SSE,5.8,-,N/A,,Mostly Cloudy,150,2014-02-20 14:06:00
9:14 AM,60.8,60.8,100,30.15,10.0,SSE,4.6,-,N/A,,Scattered Clouds,150,2014-02-20 14:14:00
9:18 AM,62.6,62.6,100,30.14,10.0,South,5.8,-,N/A,,Partly Cloudy,170,2014-02-20 14:18:00
9:58 AM,66.2,61.0,83,30.16,10.0,SSE,8.1,-,N/A,,Clear,150,2014-02-20 14:58:00
10:58 AM,73.2,60.4,64,30.16,10.0,SE,9.2,-,N/A,,Clear,140,2014-02-20 15:58:00
11:58 AM,77.4,61.0,57,30.14,10.0,SSE,15.0,-,N/A,,Partly Cloudy,160,2014-02-20 16:58:00
12:58 PM,79.9,59.9,50,30.11,10.0,South,12.7,20.7,N/A,,Clear,190,2014-02-20 17:58:00
1:58 PM,82.0,56.5,41,30.08,10.0,SSE,16.1,23.0,N/A,,Clear,160,2014-02-20 18:58:00
2:33 PM,82.4,57.2,42,30.05,10.0,South,15.0,-,N/A,,Clear,170,2014-02-20 19:33:00
2:58 PM,81.9,56.5,42,30.06,10.0,South,15.0,24.2,N/A,,Clear,170,2014-02-20 19:58:00
3:58 PM,82.6,54.9,38,30.04,10.0,South,17.3,25.3,N/A,,Clear,170,2014-02-20 20:58:00
4:58 PM,81.7,54.0,38,30.04,10.0,South,16.1,-,N/A,,Clear,170,2014-02-20 21:58:00
5:04 PM,80.6,53.6,39,30.04,10.0,SSW,15.0,-,N/A,,Clear,210,2014-02-20 22:04:00
5:58 PM,78.1,53.8,43,30.06,10.0,SW,10.4,-,N/A,,Clear,220,2014-02-20 22:58:00
6:58 PM,73.6,56.7,55,30.07,10.0,SW,6.9,-,N/A,,Clear,230,2014-02-20 23:58:00
7:58 PM,70.0,59.2,68,30.08,10.0,SW,5.8,-,N/A,,Clear,230,2014-02-21 00:58:00
8:58 PM,63.1,58.6,85,30.07,10.0,South,4.6,-,N/A,,Clear,180,2014-02-21 01:58:00
9:58 PM,63.0,60.4,91,30.06,10.0,South,2.3,-,N/A,,Clear,190,2014-02-21 02:58:00
10:58 PM,61.9,61.0,97,30.05,10.0,South,3.5,-,N/A,,Clear,170,2014-02-21 03:58:00
11:58 PM,59.0,58.6,99,30.04,10.0,South,5.8,-,N/A,,Clear,190,2014-02-21 04:58:00